[[{"header":{"parameterUnit":"m.s-1","parameterCategory":1,"la1":30.2991,"la2":30.254,"lo1":-89.0895,"lo2":-89.0444,"dy":0.0017,"dx":0.0017,"nx":28,"ny":28,"refTime":"2023-09-18T09:00:00:Z","depth":0,"parameterNumber":2,"parameterNumberName":"U-component_of_WINDS"},"data":[0,0,0,0,0,0,0,0,0,0,0,0,0,0,0,0,0,0,0,0,0,0,0,0,0,0,0,0,0,0,0,0,0,0,0,0,0,0,0,0,0,0,0,0,0,0,0,0,0,0,0,0,0,0,0,0,0,0,-0.7359,-0.7359,0,-0.7392,-0.7393,-0.7393,-0.7272,-0.7269,-0.7265,-0.7262,-0.7308,-0.7312,-0.7317,0,0,0,0,0,0,0,0,0,0,0,0,0,-0.72,-0.7204,-0.7359,-0.7359,-0.7359,-0.7392,-0.7393,-0.7393,-0.7273,-0.7269,-0.7264,-0.726,-0.7306,-0.7312,-0.7317,0,0,0,0,0,0,0,0,0,0,0,0,0,-0.7255,-0.7205,-0.7359,-0.7303,-0.7299,-0.7392,-0.7393,-0.7393,-0.7274,-0.7268,-0.7263,-0.7258,-0.7304,-0.7311,-0.7318,-0.747,0,0,-0.7339,-0.7342,0,0,0,0,0,0,0,0,-0.7252,-0.7261,-0.7311,-0.7307,-0.7302,-0.7322,-0.7353,-0.7419,-0.7275,-0.7284,-0.7261,-0.7255,-0.7318,-0.7323,-0.7342,-0.7472,-0.7474,-0.734,-0.7344,-0.7347,-0.7349,0,0,0,0,0,0,0,-0.7249,-0.7259,-0.7372,-0.7312,-0.7307,-0.728,-0.7282,-0.7365,-0.7331,-0.7283,-0.7274,-0.7279,-0.7314,-0.7335,-0.7342,-0.7475,-0.7339,-0.7346,-0.735,-0.7353,-0.7733,-0.7739,0,0,0,0,0,0,-0.7251,-0.7257,-0.7371,-0.7373,-0.7263,-0.7287,-0.7289,-0.7322,-0.733,-0.7326,-0.7283,-0.7273,-0.7326,-0.7334,-0.7343,-0.7524,-0.7347,-0.7353,-0.7357,-0.7727,-0.7734,-0.7741,0,0,0,0,0,0,-0.7248,-0.7262,-0.737,-0.7313,-0.7324,-0.7295,-0.7333,-0.7325,-0.7346,-0.733,-0.7325,-0.7311,-0.7322,-0.7333,-0.7439,-0.7524,-0.7356,-0.7363,-0.772,-0.7729,-0.7738,-0.7887,0,0,0,0,0,0,-0.7244,-0.7262,-0.7317,-0.7315,-0.7328,-0.7463,-0.7338,-0.733,-0.7357,-0.7344,-0.7355,-0.7351,-0.7319,-0.7429,-0.7446,-0.7531,-0.7368,-0.7713,-0.7724,-0.7735,-0.7874,-0.79,-0.7921,0,0,0,0,0,-0.7239,-0.736,-0.7321,-0.7335,-0.7396,-0.7468,-0.7476,-0.7433,-0.7364,-0.7422,-0.7411,-0.7351,-0.751,-0.7441,-0.7459,-0.7547,-0.7707,-0.7721,-0.7734,-0.7864,-0.7895,-0.7921,0,0,0,0,0,0,-0.7379,-0.7359,-0.7315,-0.7439,-0.7455,-0.7447,-0.7519,-0.7466,-0.7506,-0.7493,-0.744,-0.7444,-0.756,-0.7563,-0.7486,-0.7695,-0.7598,-0.7615,-0.769,-0.772,-0.7743,-0.7743,-0.7374,0,0,0,0,0,-0.7423,-0.7479,-0.746,-0.7572,-0.7581,-0.7549,-0.7578,-0.7543,-0.756,-0.7568,-0.7565,-0.7587,-0.7641,-0.768,-0.7729,-0.7871,-0.7875,-0.7941,-0.7964,-0.7984,-0.8002,-0.8081,-0.8111,-0.7785,-0.7785,-0.7784,0,0,-0.7518,-0.7513,-0.7553,-0.7599,-0.7608,-0.7672,-0.7556,-0.7628,-0.7676,-0.758,-0.7679,-0.7678,-0.7698,-0.7824,-0.7879,-0.783,-0.8091,-0.8001,-0.8017,-0.8024,-0.8098,-0.8129,-0.8156,-0.7794,-0.7792,-0.7791,0,0,-0.7723,-0.7723,-0.7817,-0.7827,-0.7839,-0.7816,-0.7838,-0.7837,-0.7832,-0.7929,-0.7859,-0.7916,-0.8011,-0.8029,-0.8051,-0.8259,-0.8208,-0.8277,-0.8403,-0.848,-0.8506,-0.8529,-0.8608,-0.8637,-0.8293,-0.8294,-0.8294,0,-0.7841,-0.793,-0.7873,-0.7949,-0.7973,-0.7883,-0.798,-0.7993,-0.8024,-0.8044,-0.7986,-0.8103,-0.8111,-0.8241,-0.8291,-0.831,-0.8338,-0.8279,-0.8506,-0.8528,-0.8549,-0.8624,-0.8653,-0.8302,-0.8301,-0.83,-0.83,0,-0.8075,-0.8138,-0.8213,-0.824,-0.8271,-0.8358,-0.8317,-0.8356,-0.8317,-0.83,-0.8402,-0.8406,-0.8457,-0.8483,-0.8447,-0.8608,-0.8578,-0.8514,-0.8416,-0.859,-0.866,-0.8688,-0.8315,-0.8312,-0.8309,-0.8307,0,0,-0.8378,-0.8368,-0.8397,-0.8409,-0.8414,-0.8464,-0.8546,-0.859,-0.8627,-0.8649,-0.8721,-0.8801,-0.8741,-0.8766,-0.873,-0.8797,-0.8967,-0.8725,-0.8725,-0.8775,-0.9151,-0.9204,-0.9238,-0.8929,-0.8934,-0.8938,-0.9151,0,-0.8583,-0.8721,-0.8671,-0.8814,-0.8874,-0.8786,-0.8858,-0.8872,-0.8858,-0.8908,-0.8893,-0.8953,-0.8867,-0.8882,-0.8943,-0.8934,-0.9043,-0.8916,-0.9001,-0.9005,-0.9005,-0.9273,-0.933,-0.953,-0.9177,-0.9182,-0.9185,0,-0.8843,-0.8872,-0.9021,-0.9015,-0.9038,-0.9104,-0.9141,-0.9188,-0.9202,-0.9187,-0.9213,-0.9162,-0.9246,-0.9142,-0.926,-0.9175,-0.9205,-0.9205,-0.9212,-0.9224,-0.9111,-0.9299,-0.9593,-0.9626,-0.9226,-0.9223,-0.922,0,-0.9056,-0.9131,-0.923,-0.9242,-0.9237,-0.9286,-0.9287,-0.9293,-0.9323,-0.9356,-0.9375,-0.9418,-0.9444,-0.948,-0.9443,-0.937,-0.9568,-0.946,-0.9564,-0.9565,-0.9616,-0.9615,-0.9926,-0.9624,-0.9624,-0.9623,-0.9623,0,-0.9295,-0.9391,-0.9325,-0.9387,-0.9492,-0.9433,-0.954,-0.9531,-0.9537,-0.9599,-0.9525,-0.9585,-0.9529,-0.9585,-0.9556,-0.9661,-0.9671,-0.9666,-0.9659,-0.9676,-0.9678,-0.9702,-0.9689,-0.9631,-0.9629,-0.9628,-0.9626,0,-0.9554,-0.9513,-0.9616,-0.96,-0.9598,-0.9677,-0.9666,-0.9724,-0.9701,-0.978,-0.9795,-0.9762,-0.9824,-0.9788,-0.9852,-0.9833,-0.997,-0.994,-0.9966,-0.9961,-1.0068,-1.0061,-1.0411,-1.0456,-1.0119,-1.0122,-1.0125,0,-0.9713,-0.9784,-0.9774,-0.9808,-0.9812,-0.9867,-0.9896,-0.9839,-0.9873,-0.9892,-0.995,-1.0003,-1.0044,-1.0146,-1.0131,-1.018,-1.0155,-1.0274,-1.0163,-1.0179,-1.0165,-1.0164,-1.0173,-1.03,-1.0304,-1.0307,-1.0309,0,-1.0002,-0.9977,-1.0019,-1.0054,-1.0089,-1.0116,-1.0136,-1.0168,-1.0111,-1.0153,-1.0213,-1.0244,-1.0306,-1.0363,-1.0404,-1.0408,-1.0353,-1.0342,-1.037,-1.0394,-1.0408,-1.0408,-1.0034,-1.0337,-1.0334,-1.0332,-1.0331,-1.033,-1.022,-1.028,-1.0282,-1.0332,-1.0339,-1.0359,-1.0414,-1.0395,-1.0443,-1.0487,-1.045,-1.0523,-1.0534,-1.0582,-1.0594,-1.0652,-1.0605,-1.0644,-1.0655,-1.0667,-1.0685,-1.0391,-1.0658,-1.0657,-1.0657,-1.0656,-1.0655,0,-1.0511,-1.0506,-1.0551,-1.058,-1.062,-1.0554,-1.0573,-1.0612,-1.0675,-1.0688,-1.0728,-1.0797,-1.0851,-1.0837,-1.0886,-1.0935,-1.0911,-1.0951,-1.0951,-1.0954,-1.0721,-1.0695,-1.097,-1.097,-1.097,-1.097,-1.097,-1.097,-1.0667,-1.0765,-1.074,-1.0842,-1.0837,-1.0905,-1.0921,-1.0941,-1.095,-1.103,-1.1072,-1.106,-1.1064,-1.1111,-1.1159,-1.1153,-1.1178,-1.1229,-1.1216,-1.1001,-1.097,-1.094,-1.0916,-1.1233,-1.1234,-1.1445,-1.1447,-1.1448]},{"header":{"parameterUnit":"m.s-1","parameterCategory":1,"la1":30.2991,"la2":30.254,"lo1":-89.0895,"lo2":-89.0444,"dy":0.0017,"dx":0.0017,"nx":28,"ny":28,"refTime":"2023-09-18T09:00:00:Z","depth":0,"parameterNumber":3,"parameterNumberName":"V-component_of_WINDS"},"data":[0,0,0,0,0,0,0,0,0,0,0,0,0,0,0,0,0,0,0,0,0,0,0,0,0,0,0,0,0,0,0,0,0,0,0,0,0,0,0,0,0,0,0,0,0,0,0,0,0,0,0,0,0,0,0,0,0,0,-2.1909,-2.191,0,-2.1997,-2.1998,-2.1999,-2.1969,-2.1968,-2.1966,-2.1964,-2.2051,-2.2055,-2.2059,0,0,0,0,0,0,0,0,0,0,0,0,0,-2.1713,-2.1716,-2.1909,-2.191,-2.1911,-2.1997,-2.1998,-2.1999,-2.197,-2.1967,-2.1965,-2.1963,-2.2049,-2.2054,-2.2059,0,0,0,0,0,0,0,0,0,0,0,0,0,-2.1799,-2.1718,-2.1909,-2.1907,-2.1907,-2.1997,-2.1998,-2.2,-2.197,-2.1967,-2.1964,-2.1962,-2.2048,-2.2054,-2.206,-2.2155,0,0,-2.2079,-2.2081,0,0,0,0,0,0,0,0,-2.1794,-2.1806,-2.1906,-2.1907,-2.1908,-2.1969,-2.1961,-2.2052,-2.1971,-2.1946,-2.1964,-2.196,-2.2026,-2.2034,-2.2056,-2.2159,-2.2163,-2.2079,-2.2083,-2.2085,-2.2087,0,0,0,0,0,0,0,-2.1788,-2.1802,-2.1944,-2.1907,-2.1909,-2.1901,-2.191,-2.1978,-2.2001,-2.1948,-2.1946,-2.1957,-2.2026,-2.205,-2.2058,-2.2164,-2.2079,-2.2084,-2.2088,-2.2091,-2.2352,-2.2355,0,0,0,0,0,0,-2.1782,-2.1797,-2.1941,-2.1946,-2.1843,-2.1907,-2.1917,-2.1953,-2.2,-2.2005,-2.196,-2.1956,-2.2041,-2.2051,-2.2061,-2.2177,-2.2085,-2.2091,-2.2095,-2.2349,-2.2353,-2.2356,0,0,0,0,0,0,-2.1778,-2.1795,-2.1937,-2.1872,-2.1889,-2.1913,-2.1953,-2.1956,-2.198,-2.2009,-2.2012,-2.1981,-2.2039,-2.2052,-2.2133,-2.2179,-2.2094,-2.21,-2.2345,-2.235,-2.2355,-2.2409,0,0,0,0,0,0,-2.1772,-2.1794,-2.183,-2.1873,-2.1893,-2.2008,-2.1956,-2.196,-2.1992,-2.1987,-2.203,-2.2034,-2.2038,-2.2124,-2.2139,-2.2186,-2.2104,-2.2341,-2.2347,-2.2353,-2.2403,-2.2415,-2.2425,0,0,0,0,0,-2.1766,-2.1841,-2.1832,-2.185,-2.1939,-2.2011,-2.2022,-2.2026,-2.1995,-2.2032,-2.2051,-2.2033,-2.2172,-2.2132,-2.2149,-2.2199,-2.2338,-2.2345,-2.2352,-2.2398,-2.2413,-2.2425,0,0,0,0,0,0,-2.1801,-2.1846,-2.1837,-2.1929,-2.1967,-2.2006,-2.2052,-2.2042,-2.2088,-2.2081,-2.2084,-2.2094,-2.2177,-2.2196,-2.2151,-2.2295,-2.225,-2.2261,-2.2279,-2.2293,-2.2304,-2.2298,-2.2109,0,0,0,0,0,-2.1821,-2.1876,-2.1912,-2.1989,-2.2009,-2.2028,-2.2059,-2.2059,-2.2098,-2.2113,-2.2137,-2.2175,-2.2227,-2.2261,-2.2311,-2.2406,-2.2415,-2.2449,-2.246,-2.2469,-2.2478,-2.2532,-2.2547,-2.238,-2.238,-2.238,0,0,-2.1859,-2.1891,-2.1925,-2.1997,-2.2026,-2.2083,-2.2041,-2.2102,-2.2144,-2.2122,-2.22,-2.2219,-2.2261,-2.235,-2.239,-2.2368,-2.2527,-2.2479,-2.2486,-2.249,-2.2541,-2.2557,-2.2571,-2.2385,-2.2384,-2.2384,0,0,-2.1959,-2.1989,-2.2057,-2.2088,-2.2134,-2.2147,-2.2163,-2.2205,-2.2218,-2.2296,-2.2281,-2.2331,-2.2421,-2.2452,-2.248,-2.2595,-2.258,-2.2611,-2.2669,-2.2721,-2.2734,-2.2746,-2.2788,-2.2802,-2.2621,-2.2621,-2.2621,0,-2.2001,-2.2087,-2.2093,-2.2157,-2.2189,-2.2174,-2.2244,-2.2273,-2.2332,-2.2355,-2.233,-2.2445,-2.2471,-2.2568,-2.2596,-2.2619,-2.2638,-2.2606,-2.2732,-2.2744,-2.2755,-2.2795,-2.281,-2.2624,-2.2624,-2.2624,-2.2623,0,-2.2137,-2.2198,-2.2247,-2.2307,-2.2345,-2.2411,-2.2427,-2.2465,-2.2463,-2.2478,-2.2559,-2.2592,-2.2649,-2.2672,-2.2669,-2.2769,-2.2754,-2.2731,-2.2686,-2.2774,-2.2812,-2.2827,-2.2629,-2.2628,-2.2627,-2.2626,0,0,-2.2259,-2.2325,-2.2343,-2.2371,-2.2422,-2.2468,-2.2534,-2.2591,-2.2624,-2.2666,-2.2721,-2.28,-2.278,-2.2811,-2.2812,-2.2858,-2.2949,-2.283,-2.2831,-2.2851,-2.3061,-2.3078,-2.3095,-2.294,-2.2943,-2.2945,-2.3058,0,-2.2364,-2.2481,-2.249,-2.2596,-2.2652,-2.264,-2.2698,-2.2735,-2.2752,-2.2802,-2.2819,-2.2875,-2.2844,-2.2863,-2.2908,-2.2928,-2.2991,-2.292,-2.2991,-2.2993,-2.298,-2.3115,-2.3132,-2.3237,-2.3072,-2.3075,-2.3076,0,-2.25,-2.2549,-2.2661,-2.2707,-2.273,-2.2782,-2.2837,-2.2885,-2.2927,-2.2937,-2.2974,-2.297,-2.3038,-2.2992,-2.3085,-2.3037,-2.3067,-2.3082,-2.3086,-2.3092,-2.304,-2.3124,-2.327,-2.3286,-2.31,-2.3098,-2.3096,0,-2.2578,-2.2672,-2.2752,-2.2776,-2.2831,-2.2868,-2.2892,-2.2933,-2.2967,-2.3015,-2.3038,-2.3092,-2.3122,-2.3164,-2.3175,-2.314,-2.3269,-2.3223,-2.3278,-2.3278,-2.3305,-2.3303,-2.3457,-2.3325,-2.3325,-2.3324,-2.3324,0,-2.2693,-2.2762,-2.2788,-2.2837,-2.2915,-2.2924,-2.3,-2.3022,-2.3059,-2.3112,-2.3105,-2.3154,-2.3166,-2.3218,-2.3227,-2.3304,-2.3317,-2.3326,-2.3328,-2.3327,-2.3326,-2.3345,-2.3338,-2.3329,-2.3328,-2.3327,-2.3326,0,-2.2793,-2.2813,-2.2899,-2.2946,-2.2959,-2.3014,-2.3053,-2.3101,-2.3118,-2.3185,-2.3201,-2.3228,-2.3289,-2.3305,-2.3377,-2.3383,-2.3474,-2.3469,-2.346,-2.346,-2.3514,-2.3508,-2.3685,-2.371,-2.3562,-2.3563,-2.3564,0,-2.2864,-2.2918,-2.2971,-2.3007,-2.3034,-2.3091,-2.3128,-2.314,-2.3178,-2.3233,-2.3274,-2.3335,-2.3384,-2.3482,-2.3507,-2.3563,-2.3559,-2.3617,-2.3567,-2.3565,-2.356,-2.3556,-2.3562,-2.3626,-2.3628,-2.3629,-2.363,0,-2.2989,-2.2998,-2.3051,-2.311,-2.3154,-2.32,-2.3244,-2.3273,-2.3292,-2.3335,-2.3399,-2.3437,-2.3513,-2.3574,-2.3631,-2.3655,-2.3646,-2.3646,-2.3662,-2.3661,-2.3654,-2.3659,-2.3486,-2.3641,-2.364,-2.364,-2.3639,-2.3638,-2.3077,-2.3124,-2.317,-2.3231,-2.3266,-2.3308,-2.3356,-2.338,-2.3434,-2.3498,-2.3502,-2.3571,-2.3615,-2.3691,-2.3719,-2.3773,-2.3755,-2.3778,-2.3783,-2.3789,-2.3794,-2.3646,-2.3783,-2.3783,-2.3783,-2.3783,-2.3782,0,-2.3201,-2.3231,-2.3287,-2.3351,-2.3399,-2.3389,-2.3438,-2.3478,-2.354,-2.3582,-2.3632,-2.3706,-2.3765,-2.3797,-2.3856,-2.3894,-2.3891,-2.3909,-2.3905,-2.3912,-2.3806,-2.3786,-2.391,-2.391,-2.391,-2.391,-2.391,-2.391,-2.3272,-2.3352,-2.3367,-2.3465,-2.3495,-2.3564,-2.3593,-2.3632,-2.3666,-2.375,-2.38,-2.3821,-2.3859,-2.3922,-2.3976,-2.3984,-2.4006,-2.4026,-2.4032,-2.3932,-2.3919,-2.3906,-2.3888,-2.4031,-2.4031,-2.4133,-2.4134,-2.4134]}]]